#timestamp,LO_Frequency,Hit,StdDev 
1510030815.5,286046993.0,N
1510030835.4,286046993.1,N
1510030855.2,286046988.6,Y
1510030875.1,286046995.7,P
1510030876.0,286046995.7,P
1510030895.8,286046997.9,N
1510030915.6,286046999.8,N
1510030935.5,286047006.9,Y
1510030955.3,286047009.5,P
1510030975.1,286047004.4,N
1510030995.9,286047002.4,N
1510031015.7,286047000.7,N
1510031035.5,286047002.8,N
1510031055.4,286046999.0,N
1510031075.2,286046996.2,N
1510031095.1,286046997.8,N
1510031096.0,286046997.8,N
1510031115.8,286046991.9,N
1510031135.6,286046994.2,N
1510031155.5,286046995.6,N
1510031175.3,286046992.1,N
1510031195.1,286046992.9,N
1510031215.9,286046991.1,N
1510031235.7,286046990.7,N
1510031255.5,286046986.7,N
1510031275.4,286046984.3,N
1510031295.2,286046988.2,N
1510031315.0,286046987.6,N
1510031316.0,286046987.6,N
1510031335.8,286046987.6,N
1510031355.6,286046988.4,N
1510031375.5,286046988.8,N
1510031395.3,286046991.4,N
1510031415.1,286046990.0,N
1510031435.9,286046990.1,N
1510031455.7,286046990.4,N
1510031475.5,286046992.4,N
1510031495.4,286046986.9,N
1510031515.2,286046987.0,N
1510031535.0,286046990.5,N
1510031536.0,286046990.5,N
1510031555.8,286046993.9,N
1510031575.6,286046995.2,N
1510031595.5,286046992.7,N
1510031615.3,286046994.8,N
1510031635.1,286046992.0,N
1510031655.9,286046994.5,N
1510031675.7,286046997.3,N
1510031695.5,286047001.1,N
1510031715.4,286047000.6,N
1510031735.2,286046998.4,N
1510031755.0,286046999.4,N
1510031755.9,286046999.4,N
1510031775.8,286046999.5,N
1510031795.6,286046995.9,N
1510031815.5,286046992.5,N
1510031835.3,286046996.3,N
1510031855.1,286046993.6,N
1510031875.9,286046992.0,N
1510031895.7,286046995.9,N
1510031915.5,286046995.9,N
1510031935.4,286046999.1,N
1510031955.2,286046999.8,N
1510031975.0,286047000.1,N
1510031975.9,286047000.1,N
1510031995.8,286047002.5,N
1510032015.6,286047002.1,N
1510032035.4,286047000.3,N
1510032055.3,286047000.6,N
1510032075.1,286046998.8,N
1510032095.9,286046996.6,N
1510032115.7,286046995.0,N
1510032135.5,286046995.5,N
1510032155.4,286046994.7,N
1510032175.2,286046991.3,N
1510032195.0,286046986.1,Y
1510032196.0,286046986.1,P
1510032215.8,286046985.8,N
1510032235.6,286046984.3,N
1510032255.5,286046981.7,Y
1510032275.3,286046986.4,P
1510032295.1,286046981.7,P
1510032315.9,286046977.8,P
1510032335.7,286046980.1,Y
1510032355.5,286046994.6,P
1510032375.4,286046990.7,N
1510032395.2,286046994.5,N
1510032415.1,286046991.4,N
1510032416.0,286046991.4,N
1510032435.8,286046992.6,N
1510032455.6,286046994.7,N
1510032475.5,286046995.1,N
1510032495.3,286046997.3,N
1510032515.1,286046997.0,N
1510032535.9,286047000.2,N
1510032555.7,286047002.0,N
1510032575.5,286047000.2,N
1510032595.4,286047002.2,N
1510032615.2,286047000.2,N
1510032635.0,286046998.7,N
1510032636.0,286046998.7,N
1510032655.8,286047001.3,N
1510032675.6,286047003.7,N
1510032695.5,286047005.8,N
1510032715.3,286047005.7,N
1510032735.1,286047006.9,N
1510032755.9,286047008.5,N
1510032775.7,286047010.4,N
1510032795.5,286047015.5,N
1510032815.4,286047016.9,N
1510032835.2,286047016.2,N
1510032855.0,286047023.1,N
1510032856.0,286047023.1,N
1510032875.8,286047028.2,N
1510032895.6,286047027.8,N
1510032915.5,286047019.4,N
1510032935.3,286047022.7,N
1510032955.1,286047019.6,N
1510032975.9,286047017.6,N
1510032995.7,286047022.0,N
1510033015.5,286047022.2,N
1510033035.4,286047023.7,N
1510033055.2,286047025.5,N
1510033075.0,286047027.2,N
1510033075.9,286047027.2,N
1510033095.8,286047026.3,N
1510033115.6,286047028.1,N
1510033135.5,286047031.5,Y
1510033155.3,286047014.0,P
1510033175.1,286047009.5,P
1510033195.9,286047012.3,P
1510033215.7,286047014.1,Y
1510033235.5,286047000.5,P
1510033255.4,286047000.8,N
1510033275.2,286047005.6,N
1510033295.0,286047004.9,N
1510033296.0,286047004.9,N
1510033315.8,286047007.4,N
1510033335.6,286047003.8,N
1510033355.5,286047003.4,N
1510033375.3,286047006.4,N
1510033395.1,286047008.4,N
1510033415.9,286047003.3,N
1510033435.7,286047003.7,N
1510033455.5,286047005.7,N
1510033475.4,286047006.1,N
1510033495.2,286047004.9,N
1510033515.0,286047009.2,Y
1510033515.9,286047009.2,P
1510033535.8,286047007.0,P
1510033555.6,286047006.6,P
1510033575.5,286047009.6,Y
1510033595.3,286047002.7,P
1510033615.1,286047000.1,N
1510033635.9,286047001.4,N
1510033655.7,286046999.7,N
1510033675.5,286047002.0,N
1510033695.4,286046998.9,N
1510033715.2,286046999.0,N
1510033735.1,286046998.6,N
1510033736.0,286046998.6,N
1510033755.8,286047000.4,N
1510033775.6,286046998.2,N
1510033795.5,286047002.8,N
1510033815.3,286047000.9,N
1510033835.1,286046998.5,N
1510033855.9,286046997.7,N
1510033875.7,286046998.3,N
1510033895.5,286047001.0,N
1510033915.4,286046999.0,N
1510033935.2,286046997.7,N
1510033955.0,286046998.2,N
1510033956.0,286046998.2,N
1510033975.8,286047000.6,N
1510033995.6,286047001.6,N
1510034015.5,286047005.4,N
1510034035.3,286047008.8,Y
1510034055.1,286047010.8,P
1510034075.9,286047011.6,N
1510034095.7,286047012.2,N
1510034115.5,286047010.8,N
1510034135.4,286047008.0,N
1510034155.2,286047001.5,N
1510034175.1,286047001.2,N
1510034176.0,286047001.2,N
1510034195.8,286046998.8,N
1510034215.6,286046994.2,N
1510034235.5,286046990.4,N
1510034255.3,286046996.2,N
1510034275.1,286046997.2,N
1510034295.9,286046998.7,N
1510034315.7,286046998.4,N
1510034335.6,286047001.1,N
1510034355.4,286046999.9,N
1510034375.2,286046998.9,N
1510034395.1,286046998.4,N
1510034396.0,286046998.4,N
